UKUBE-1

Last updated on Mon Sep 21 2026 00:03:44 GMT+0000 (Coordinated Universal Time)

1 40074U 14037F 26263.26046318 .00005236 00000+0 28637-3 0 9993 2 40074 98.4270 276.6371 0001624 147.5856 212.5473 15.14789741662946
UTC large
Height (km)
Speed (km/s)
/
Latitude / Longitude
Inclination (degrees)
Orbital Period (minutes)
Azimuth
Elevation
Range (km)
Doppler Factor

Next 0 passes for location: London (51.5072 / 0.1276)

No passes found over London.
UKUBE-1